Tracking 27380 objects as of 5-Jun-2023
HD Live streaming from Space Station
objects crossing your sky now

DELTA 1 DEB

Track DELTA 1 DEB now!
10-day predictions


NORAD ID: 14883
Int'l Code: 1973-086GS
Perigee: 1,499.4 km
Apogee: 1,878.2 km
Inclination: 102.1 °
Period: 120.0 minutes
Semi major axis: 8059 km
RCS: 0.0421 m2 (small)
Launch date: November 6, 1973
Source: United States (US)
Launch site: AIR FORCE WESTERN TEST RANGE (AFWTR)

Note: This is SATELLITE DEBRIS
Your satellite tracking list
Your tracking list is empty




NASA's NSSDC Master Catalog

Two Line Element Set (TLE):
1 14883U 73086GS  23156.03894157  .00000098  00000-0  15965-2 0  9997
2 14883 102.0712  75.7310 0235032 263.6734 105.8627 11.99823438494686
Source of the keplerian elements: AFSPC